Location: Lafig�re
(44.4503°N, 4.0357°E)
Time: 23:05:19
(UTC+00:00)

BlueWalker 3 - Pass Details

Date: 08 December 2022
Orbit: 499 x 517 km, 53.2° (Epoch: 05 February)

Event Time Altitude Azimuth Distance (km) Brightness Sun altitude
Rises 17:28:56 0° 305° (NW) 2,629 6.2 -14.5°
Reaches altitude 10° 17:31:12 10° 311° (NW) 1,736 5.1 -14.9°
Maximum altitude 17:35:01 47° 26° (NNE) 683 2.3 -15.6°
Enters shadow 17:36:23 32° 79° (ENE) 889 2.6 -15.8°
